Wind_Speed
2 2 3 4 4 4 3 3 2 2 2 3 3 3 2 2 2 2 3 3 3 3 3 3 3 3 3 4 4 4 4 5 5 5 6 6 6 6 7 8 8 9 9
4 4 4 4 4 4 3 2 1 1 2 2 2 2 2 2 2 2 2 3 3 3 2 2 2 2 2 3 3 3 3 4 4 4 4 5 5 5 6 7 7 8 8
5 5 5 5 5 4 4 3 1 1 1 2 2 2 2 2 3 3 3 3 3 3 3 3 2 2 2 2 2 2 2 3 3 3 4 4 4 4 5 6 6 7 7
6 6 6 7 6 5 5 4 3 1 2 2 2 3 3 3 3 3 4 4 4 4 4 4 3 3 2 1 1 1 1 2 2 2 3 3 3 3 4 4 5 5 6
7 7 7 8 8 7 6 5 4 3 2 3 3 3 4 4 4 4 4 5 5 5 5 5 5 4 3 3 2 1 1 0 1 1 2 2 2 2 2 3 3 4 5
8 8 9 9 9 9 8 7 6 4 4 4 4 4 5 5 5 5 6 6 6 6 6 6 6 6 5 5 4 3 2 2 1 0 1 0 1 1 2 2 2 3 3
10 10 10 10 10 10 10 9 7 6 5 5 5 5 6 6 6 7 7 7 7 7 7 7 7 7 6 6 5 5 4 3 3 2 2 2 1 1 1 1 2 2 2
12 12 11 12 12 11 11 10 9 7 7 6 6 6 7 7 7 8 8 8 8 8 8 8 8 7 7 7 6 6 5 5 4 4 3 3 3 3 2 2 2 2 2
13 13 14 14 13 13 12 12 10 9 8 8 7 7 8 8 9 9 9 9 9 9 9 9 8 8 8 8 8 7 6 6 5 5 5 4 4 4 4 3 3 3 2
13 15 15 16 15 15 14 12 11 11 10 9 8 9 8 9 10 9 9 9 9 10 10 9 9 9 9 9 8 7 7 7 6 6 6 5 5 5 5 5 4 4 3
14 15 15 15 16 16 15 13 12 11 11 10 9 9 10 10 10 10 10 9 10 10 10 10 10 10 10 9 8 8 8 7 7 7 7 6 6 6 6 6 6 5 5
17 17 16 17 16 16 15 14 14 12 12 11 10 10 10 9 9 10 9 9 10 9 9 9 10 9 9 8 8 8 8 8 8 9 8 7 6 6 6 7 7 7 6
18 18 18 19 19 18 16 15 15 14 12 11 11 10 10 10 10 10 9 8 8 8 8 8 8 8 8 7 7 7 8 9 9 9 9 8 7 7 7 7 7 8 8
18 19 19 20 19 18 17 16 15 14 13 11 11 11 10 10 10 9 8 7 7 6 6 6 7 7 7 7 6 6 6 7 8 9 9 8 8 8 8 8 8 8 9
18 19 19 19 19 19 18 17 16 15 14 13 12 11 11 10 8 7 7 7 6 5 5 5 6 7 7 7 6 6 6 6 7 8 8 8 8 9 8 9 9 9 9
15 17 17 19 20 19 18 17 16 15 14 13 12 10 9 8 7 7 6 5 5 4 4 4 4 5 6 6 5 5 5 5 6 6 7 7 8 8 9 9 10 10 9
14 15 17 19 20 19 19 18 16 14 13 12 11 10 8 8 7 6 5 4 3 3 3 3 4 4 4 4 4 5 5 5 5 6 6 7 8 9 9 9 10 10 10
14 16 17 17 20 19 19 17 15 14 13 12 11 10 9 7 6 5 4 3 3 2 2 2 2 2 3 4 4 4 4 5 4 5 6 7 8 8 8 9 10 10 11
14 17 16 17 18 18 17 15 15 14 13 12 10 9 8 7 5 5 5 4 3 3 2 1 1 1 2 3 3 3 3 3 4 5 5 6 7 8 8 8 9 10 10
12 15 16 18 19 18 17 16 15 14 13 12 10 9 8 7 6 6 5 4 3 3 2 0 0 1 1 2 2 2 3 3 4 4 5 5 6 7 8 9 9 10 10
9 13 16 18 19 19 18 17 15 14 14 13 10 10 10 8 7 6 5 4 4 3 2 1 1 1 1 2 2 2 3 3 4 4 5 5 6 6 7 8 9 10 10
7 11 15 17 18 18 17 17 16 15 14 13 11 11 10 9 7 6 5 5 5 4 2 2 1 1 2 2 3 3 3 3 4 5 5 5 6 6 6 7 8 9 9
7 10 13 15 17 17 17 17 15 14 14 13 12 11 11 9 8 7 6 5 5 4 3 1 1 1 2 2 3 3 3 4 4 5 5 5 6 6 6 7 7 8 9
6 10 12 13 15 16 17 17 16 14 14 14 13 13 12 10 9 8 6 5 5 4 3 1 0 1 2 3 3 4 4 4 5 5 6 6 7 7 7 7 8 9 10
6 9 10 13 13 15 16 16 16 16 16 15 14 13 12 11 10 8 6 6 5 4 3 2 1 2 3 3 4 4 4 5 5 6 6 7 7 7 8 8 9 10 11
5 7 9 12 13 13 14 16 17 17 16 16 15 14 12 11 10 8 7 7 6 5 3 2 2 3 3 4 5 5 5 6 6 7 7 7 8 9 9 10 10 11 12
Wind_Direction
207 169 151 154 147 133 117 94 69 47 28 19 24 25 23 34 43 45 43 42 42 42 42 46 52 59 67 72 74 74 77 79 80 82 82 82 82 80 78 76 76 76 76
225 205 189 181 175 161 149 134 114 50 7 357 359 352 350 352 354 359 1 5 7 8 10 13 23 33 48 63 71 74 79 86 87 89 88 85 82 78 75 76 76 77 76
225 206 199 197 191 181 175 174 185 239 324 336 341 330 320 321 326 332 336 336 336 335 335 341 346 351 15 39 59 73 83 88 86 88 85 81 79 77 76 78 78 77 77
230 213 206 205 200 195 193 196 204 235 284 304 318 315 306 304 306 314 320 318 317 318 317 319 322 319 321 343 18 39 63 77 78 80 83 79 76 78 80 81 83 82 81
235 228 219 213 209 207 206 206 211 228 258 275 291 298 295 297 298 301 306 308 308 307 306 307 307 305 304 303 312 328 337 36 63 58 80 81 82 89 90 88 94 93 90
235 233 227 220 216 213 213 215 219 232 248 261 275 286 289 293 297 300 302 303 303 301 301 302 300 297 296 295 293 293 292 285 283 310 360 85 138 125 121 115 117 110 103
236 231 229 228 223 219 218 219 223 233 244 255 267 276 283 289 294 294 296 298 299 299 298 296 296 293 291 287 284 281 276 273 263 258 269 253 217 195 178 163 153 139 126
236 232 230 230 227 223 221 221 225 235 242 250 262 271 276 283 290 290 292 294 293 293 294 291 289 290 288 283 279 278 275 268 264 260 258 251 233 225 220 211 192 171 159
241 239 232 230 229 226 224 226 229 236 241 247 256 267 277 283 284 288 290 292 290 288 289 289 286 287 287 284 278 277 276 271 267 267 262 249 246 242 232 230 223 213 201
247 242 237 232 230 228 228 231 234 237 242 248 257 263 272 280 281 283 287 290 289 288 286 286 287 287 285 283 275 272 270 269 265 263 266 258 251 247 239 232 236 234 224
247 237 232 230 228 228 229 234 234 237 242 248 255 261 268 276 280 284 284 285 288 289 285 284 287 287 284 281 275 267 264 267 265 261 265 264 260 254 245 238 241 241 237
244 233 232 229 228 226 228 233 234 235 238 243 252 262 269 276 282 286 284 287 291 289 284 280 284 286 286 281 275 268 262 264 265 262 262 263 265 260 250 246 245 244 244
239 232 232 230 228 225 226 231 232 232 234 240 252 260 266 271 280 282 284 291 291 288 282 277 283 286 289 286 280 270 264 264 260 262 260 261 262 262 258 252 249 247 248
239 237 231 224 224 224 225 227 229 232 235 241 249 252 260 270 276 276 277 284 286 285 283 284 283 287 290 290 283 269 265 264 262 261 259 258 262 263 262 256 257 254 251
239 229 226 225 221 220 222 226 229 232 235 240 243 246 256 264 264 265 273 278 280 279 280 289 285 289 291 289 284 281 276 269 267 262 259 259 261 263 264 258 258 257 255
233 227 225 222 218 218 224 226 229 232 237 241 242 246 250 248 249 261 268 273 276 272 279 292 295 297 299 292 291 286 279 270 267 269 267 267 266 267 267 265 259 258 259
241 229 224 222 215 216 218 220 223 227 236 240 240 242 239 235 241 249 254 255 259 261 275 293 302 303 306 297 289 281 280 276 273 276 275 271 269 270 268 266 262 261 263
240 226 219 219 211 212 214 214 220 227 231 237 237 237 231 226 228 231 227 227 233 244 269 286 302 321 324 318 304 286 286 285 280 286 287 282 275 274 272 266 265 266 265
233 227 219 214 213 210 212 216 221 226 227 231 232 230 220 214 213 208 199 207 224 221 226 257 285 333 335 334 325 311 304 296 297 298 295 291 283 278 276 275 271 269 270
231 225 217 211 209 208 211 212 214 218 221 223 223 217 211 207 205 197 198 206 210 201 197 240 67 357 347 359 351 332 324 320 314 308 305 299 290 286 282 280 278 275 274
235 216 205 202 201 204 205 208 211 212 213 213 212 205 202 198 191 187 197 193 183 178 170 144 78 49 27 19 7 357 346 334 329 325 317 308 299 292 288 286 283 279 276
220 205 203 197 196 202 204 201 202 202 202 202 196 195 196 192 187 189 185 173 172 174 159 125 95 42 25 7 2 354 346 338 336 335 328 320 314 307 299 294 292 285 282
211 197 193 198 198 199 200 198 196 197 198 195 194 194 193 189 188 184 175 176 179 181 172 146 99 31 9 359 352 349 343 338 340 340 333 325 320 316 309 304 300 295 290
194 185 192 201 195 197 198 193 191 193 193 194 194 191 188 187 188 184 182 183 184 181 178 182 153 10 359 353 349 348 343 337 336 333 329 323 321 318 314 310 303 299 295
173 184 193 196 192 194 194 196 196 194 191 190 189 187 189 192 193 193 192 189 189 190 194 204 274 331 343 344 342 340 339 332 327 326 324 323 322 321 316 312 308 304 300
154 170 182 184 185 187 190 193 191 188 188 189 189 191 194 196 197 203 209 198 197 203 215 243 281 304 319 326 328 327 322 320 317 317 318 318 317 316 315 312 309 306 303
Height
5898 5898 5898 5899 5900 5901 5902 5902 5903 5903 5904 5904 5903 5903 5902 5902 5902 5901 5901 5900 5900 5899 5899 5898 5898 5898 5898 5897 5897 5897 5896 5896 5896 5896 5896 5895 5895 5894 5894 5894 5893 5893 5893
5897 5898 5898 5899 5900 5901 5902 5903 5903 5904 5904 5904 5904 5904 5903 5903 5902 5902 5901 5901 5900 5900 5899 5899 5899 5899 5898 5898 5898 5898 5897 5897 5897 5897 5896 5896 5896 5895 5895 5895 5895 5894 5894
5896 5897 5898 5899 5900 5901 5902 5903 5904 5904 5904 5904 5904 5904 5904 5903 5903 5902 5902 5901 5901 5900 5900 5899 5899 5899 5899 5898 5898 5898 5898 5897 5897 5897 5897 5897 5897 5897 5896 5896 5896 5896 5896
5895 5896 5897 5899 5900 5901 5902 5903 5903 5904 5904 5905 5905 5905 5904 5904 5903 5903 5902 5902 5901 5901 5900 5900 5899 5899 5899 5898 5898 5898 5898 5898 5898 5898 5898 5898 5898 5898 5897 5897 5897 5897 5897
5894 5895 5896 5897 5899 5900 5901 5902 5903 5904 5904 5904 5905 5905 5904 5904 5903 5903 5902 5902 5901 5901 5900 5900 5899 5899 5898 5898 5898 5898 5898 5898 5898 5898 5898 5898 5898 5898 5898 5898 5898 5898 5898
5893 5894 5895 5896 5897 5899 5900 5901 5902 5903 5903 5904 5904 5904 5904 5904 5903 5903 5902 5902 5901 5901 5900 5899 5899 5898 5898 5898 5898 5898 5898 5898 5898 5898 5898 5898 5899 5899 5899 5899 5899 5899 5899
5891 5892 5893 5894 5896 5897 5898 5900 5901 5902 5903 5903 5904 5904 5904 5903 5903 5903 5902 5902 5901 5900 5900 5899 5898 5898 5898 5898 5898 5898 5898 5898 5898 5898 5898 5898 5899 5899 5899 5899 5899 5899 5899
5888 5889 5891 5892 5894 5895 5897 5898 5899 5900 5901 5902 5903 5903 5903 5903 5902 5902 5902 5901 5900 5900 5899 5898 5898 5898 5897 5897 5897 5897 5897 5897 5897 5898 5898 5898 5898 5898 5899 5899 5899 5899 5900
5885 5887 5888 5890 5892 5893 5895 5896 5898 5899 5900 5901 5901 5902 5902 5902 5901 5901 5901 5900 5899 5898 5898 5897 5897 5897 5896 5896 5896 5896 5896 5897 5897 5897 5897 5897 5898 5898 5898 5899 5899 5899 5899
5880 5883 5885 5887 5889 5891 5893 5894 5896 5897 5898 5899 5900 5900 5900 5900 5900 5900 5899 5898 5898 5897 5897 5896 5896 5895 5895 5895 5895 5895 5896 5896 5896 5896 5896 5897 5897 5897 5897 5898 5899 5899 5899
5877 5880 5882 5884 5886 5888 5891 5892 5894 5895 5896 5897 5898 5898 5899 5898 5898 5898 5898 5897 5896 5896 5895 5895 5894 5894 5894 5893 5894 5894 5894 5894 5895 5895 5895 5896 5896 5896 5897 5897 5898 5898 5898
5873 5875 5878 5881 5883 5885 5887 5890 5891 5893 5894 5895 5896 5896 5897 5897 5897 5897 5896 5895 5895 5894 5894 5893 5892 5892 5892 5892 5892 5892 5893 5893 5893 5893 5894 5894 5895 5895 5895 5896 5896 5897 5897
5868 5870 5874 5877 5880 5882 5884 5887 5888 5890 5892 5893 5894 5894 5895 5895 5895 5895 5895 5894 5893 5893 5892 5892 5891 5891 5890 5890 5890 5890 5891 5891 5891 5892 5892 5893 5893 5894 5894 5894 5895 5895 5896
5864 5866 5870 5873 5876 5878 5881 5883 5886 5888 5889 5891 5892 5892 5893 5893 5894 5894 5893 5893 5892 5892 5891 5891 5890 5890 5889 5889 5889 5889 5889 5889 5889 5890 5890 5891 5891 5892 5892 5892 5893 5893 5894
5860 5861 5864 5868 5871 5875 5878 5880 5883 5885 5887 5888 5889 5890 5891 5892 5892 5892 5892 5891 5891 5891 5890 5890 5889 5888 5888 5888 5887 5887 5888 5888 5888 5888 5889 5889 5889 5890 5890 5890 5891 5891 5892
5855 5858 5861 5864 5867 5871 5874 5877 5880 5882 5884 5886 5887 5889 5889 5890 5890 5891 5890 5890 5890 5890 5889 5889 5888 5888 5887 5886 5886 5886 5886 5886 5887 5887 5887 5887 5887 5888 5888 5888 5888 5889 5889
5853 5855 5858 5860 5864 5868 5871 5875 5877 5880 5881 5883 5884 5886 5887 5888 5889 5889 5889 5889 5889 5889 5888 5888 5887 5887 5886 5886 5885 5885 5885 5885 5885 5885 5885 5886 5886 5886 5886 5886 5886 5886 5887
5848 5852 5854 5856 5860 5865 5868 5871 5874 5877 5879 5880 5882 5884 5885 5886 5887 5887 5888 5888 5888 5888 5888 5887 5887 5886 5885 5885 5884 5884 5884 5884 5884 5884 5884 5884 5884 5884 5884 5884 5884 5884 5884
5844 5848 5851 5854 5858 5862 5866 5869 5872 5874 5876 5878 5880 5882 5883 5885 5885 5886 5887 5887 5887 5887 5887 5886 5886 5885 5885 5884 5884 5884 5883 5883 5883 5883 5882 5882 5882 5882 5882 5882 5882 5882 5882
5842 5844 5847 5850 5854 5859 5863 5866 5869 5872 5874 5876 5878 5880 5882 5883 5884 5885 5886 5886 5886 5886 5886 5886 5885 5885 5885 5884 5884 5883 5883 5882 5882 5882 5881 5881 5881 5880 5880 5880 5880 5879 5879
5840 5841 5844 5847 5851 5856 5860 5864 5867 5870 5872 5874 5876 5878 5880 5882 5883 5884 5885 5885 5885 5885 5885 5885 5885 5885 5884 5884 5884 5883 5882 5882 5881 5881 5880 5880 5879 5879 5878 5878 5877 5877 5876
5838 5840 5843 5845 5849 5853 5857 5861 5865 5867 5870 5872 5874 5876 5878 5880 5882 5883 5884 5884 5884 5885 5885 5885 5884 5884 5884 5883 5883 5882 5882 5882 5881 5880 5879 5879 5878 5877 5877 5876 5875 5874 5874
5836 5839 5842 5844 5847 5851 5854 5858 5863 5865 5868 5870 5872 5875 5877 5879 5880 5882 5882 5883 5884 5884 5884 5884 5884 5883 5883 5883 5882 5882 5881 5881 5880 5879 5878 5877 5877 5876 5875 5874 5873 5872 5871
5836 5838 5840 5843 5845 5849 5852 5856 5860 5863 5866 5868 5871 5873 5875 5877 5879 5880 5881 5881 5882 5883 5883 5883 5883 5882 5882 5882 5881 5880 5880 5879 5879 5878 5877 5876 5875 5874 5873 5872 5870 5869 5869
5835 5837 5839 5841 5844 5848 5850 5854 5858 5861 5864 5867 5869 5872 5874 5876 5877 5878 5879 5880 5880 5881 5882 5882 5882 5881 5881 5880 5880 5879 5878 5878 5877 5876 5875 5874 5873 5872 5871 5869 5868 5867 5866
5836 5836 5838 5840 5843 5846 5849 5852 5855 5858 5862 5865 5868 5870 5872 5874 5875 5876 5877 5878 5879 5880 5880 5880 5880 5880 5879 5878 5878 5877 5877 5876 5875 5874 5873 5872 5871 5870 5868 5867 5865 5864 5863